Location: Castifao
(42.5040°N, 9.1124°E)
Time: 18:12:08
(UTC+00:00)

Cosmos 2333 Rocket - Pass Details

Date: 23 January 2020
Orbit: 839 x 863 km, 70.8° (Epoch: 27 February)

Event Time Altitude Azimuth Distance (km) Brightness Sun altitude
Rises 17:21:48 0° 325° (NW) 3,434 5.6 -10.6°
Reaches altitude 10° 17:24:31 10° 316° (NW) 2,489 5.0 -11.1°
Maximum altitude 17:29:25 30° 257° (WSW) 1,473 4.4 -11.9°
Drops below altitude 10° 17:34:16 10° 197° (SSW) 2,460 5.1 -12.8°
Sets 17:36:57 0° 187° (S) 3,387 5.6 -13.3°
